Weather Roundup
Issued by NWS

Home | Current Version | Previous Version | Text Only | Print | Product List | Glossary On
Versions: 1 2 3 4 5 6 7 8 9 10 11 12 13 14 15 16 17 18 19 20 21 22 23 24 25 26 27 28 29 30 31 32 33 34 35 36 37 38 39 40 41 42 43 44 45 46 47 48 49 50
270
NZUS93 KARX 262010
HRRWXR

CURRENT HOURLY OBSERVATIONS ACROSS
MUCH OF THE UPPER MISSISSIPPI VALLEY
NATIONAL WEATHER SERVICE LA CROSSE WI
300 PM CDT THU MAY 26 2016


...SOUTHEAST MINNESOTA...


CITY           SKY/WX    TMP DP  RH WIND       PRES   REMARKS
ROCHESTER      FAIR      77  63  61 SW18      29.88S
ROCHESTER/MAYO FAIR      78  55  44 SW14G24   29.86S
WINONA         FAIR      79  59  50 W9G16     29.84S
AUSTIN         FAIR      77  55  47 SW9G17    29.87F
ALBERT LEA     FAIR      77  54  44 SW3       29.87F
DODGE CENTER   FAIR      79  54  41 SW13      29.88S
PRESTON          N/A    N/A N/A N/A MISG        N/A
OWATONNA       FAIR      79  52  38 SW7       29.87S
FARIBAULT      FAIR      79  55  44 W7        29.86S
$$

...ELSEWHERE IN MINNESOTA...


CITY           SKY/WX    TMP DP  RH WIND       PRES   REMARKS
MINNEAPOLIS    FAIR      80  50  34 W10G20    29.81F
INTNL FALLS    FAIR      74  54  49 W8        29.73F
DULUTH         FAIR      65  56  72 CALM      29.81S
RED WING       FAIR      82  46  28 W15       29.82R
REDWOOD FALLS  FAIR      80  49  33 W12G20    29.83F
MANKATO        FAIR      75  54  46 NW7       29.86S
WORTHINGTON    FAIR      75  54  47 SW9       29.88F
FAIRMONT       FAIR      77  52  41 W7        29.87S
$$

...SOUTHWEST WISCONSIN...


CITY           SKY/WX    TMP DP  RH WIND       PRES   REMARKS
LA CROSSE      FAIR      83  59  44 SW16      29.83S
PRAIRIE DU CHI FAIR      82  51  33 SW10      29.85F
BOSCOBEL       FAIR      84  56  38 SW12G21   29.85F
LONE ROCK      FAIR      85  54  34 W16G25    29.85F
PLATTEVILLE    FAIR      83  53  34 W16       29.87F
FORT MC COY    FAIR      79  59  50 W10       29.85F
CAMP DOUGLAS   MOSUNNY   79  68  69 W15       29.85S
MAUSTON-NEW LI FAIR      79  61  53 W13G18    29.85R
VIROQUA        FAIR      78  59  52 SW15      29.88F
WIS DELLS      FAIR      80  56  43 SW12G21   29.86S
$$

...ELSEWHERE IN WISCONSIN...


CITY           SKY/WX    TMP DP  RH WIND       PRES   REMARKS
MILWAUKEE      PTSUNNY   82  60  47 SW16      29.85F
MADISON        PTSUNNY   81  56  42 SW10      29.84F
GREEN BAY      FAIR      79  62  56 W15       29.82R
EAU CLAIRE     FAIR      79  58  48 SW14G21   29.81S
BLACK RVR FLS  FAIR      79  56  44 SW10G17   29.84S
MEDFORD        FAIR      73  60  65 W13       29.85R
WAUSAU         FAIR      77  59  53 SW14      29.83R
WIS RAPIDS     FAIR      80  54  40 W14       29.85R
MARSHFIELD     FAIR      77  56  48 W15G21    29.85R
RICE LAKE      PTSUNNY   78  56  45 S9        29.82S
$$

...NORTHEAST IOWA...


CITY           SKY/WX    TMP DP  RH WIND       PRES   REMARKS
WATERLOO       FAIR      81  58  45 SW6       29.85F
DUBUQUE        FAIR      81  58  45 W10       29.88F
DECORAH        FAIR      77  63  61 W12       29.87F
MASON CITY     FAIR      78  61  55 W8        29.88F
CHARLES CITY   FAIR      79  61  53 W8G16     29.88F
OELWEIN        FAIR      79  59  50 SW10      29.88F
$$

...ELSEWHERE IN IOWA...


CITY           SKY/WX    TMP DP  RH WIND       PRES   REMARKS
DES MOINES     PTSUNNY   81  62  52 SE9       29.82F
IOWA CITY      FAIR      82  62  50 S7        29.86F
FORT DODGE     FAIR      79  59  50 CALM      29.85F
MARSHALLTOWN   FAIR      81  60  48 NE3       29.84F
CEDAR RAPIDS   FAIR      79  64  60 W6        29.85F
$$

...NORTHERN ILLINOIS...


CITY           SKY/WX    TMP DP  RH WIND       PRES   REMARKS
CHICAGO-OHARE  PTSUNNY   80  63  55 SW13G22   29.87F
CHICAGO-MIDWAY PTSUNNY   82  62  50 SW15      29.87F
MOLINE         FAIR      86  64  47 W9        29.84F
ROCKFORD       PTSUNNY   82  64  54 SW8       29.89F
PEORIA         FAIR      83  64  52 S9        29.87F
$$

NOTE: "FAIR" INDICATES FEW OR NO CLOUDS BELOW 12,000 FEET WITH NO
SIGNIFICANT WEATHER AND/OR OBSTRUCTIONS TO VISIBILITY. WIND
SPEEDS ARE IN MILES-PER-HOUR.




USA.gov is the U.S. government's official web portal to all federal, state and local government web resources and services.